When you browse on this site, cookies collect data to enhance your experience and personalize the content and advertising you see.
Visit our Privacy Policy to learn more. By continuing to use the site, you agree to this use of cookies and data.
  • In Österreich
  • Länderverzeichnis
  • Für 7 Tage
  • Wassertemperatur
  • Satellitenkarten
  • Wetterkarte
  • News
  • Widgets
  • user-avatar
    Anmelden

    Stündliche Wetter Lubikowko

    Heute, 26 Mai, Sonntag

    Zeit Temperatur Niederschläge Wind Luftdruck Luftfeuchtigkeit
    00:00 +9°C° 0 mm 2 m/S 755 mmHg 84%
    01:00 +9°C° 0 mm 2 m/S 755 mmHg 85%
    02:00 +9°C° 0 mm 2 m/S 755 mmHg 83%
    03:00 +9°C° 0 mm 2 m/S 755 mmHg 81%
    04:00 +10°C° 0 mm 3 m/S 755 mmHg 80%
    05:00 +11°C° 0 mm 3 m/S 755 mmHg 76%
    06:00 +12°C° 0 mm 3 m/S 755 mmHg 71%
    07:00 +12°C° 0 mm 3 m/S 755 mmHg 67%
    08:00 +14°C° 0 mm 4 m/S 754 mmHg 63%
    09:00 +15°C° 0 mm 4 m/S 754 mmHg 58%
    10:00 +18°C° 0 mm 4 m/S 754 mmHg 53%
    11:00 +19°C° 0 mm 5 m/S 754 mmHg 50%
    12:00 +20°C° 0 mm 5 m/S 753 mmHg 47%
    13:00 +21°C° 0 mm 5 m/S 753 mmHg 43%
    14:00 +21°C° 0 mm 5 m/S 752 mmHg 46%
    15:00 +21°C° 0 mm 5 m/S 752 mmHg 49%
    16:00 +21°C° 0 mm 5 m/S 752 mmHg 52%
    17:00 +20°C° 0 mm 4 m/S 752 mmHg 57%
    18:00 +19°C° 0 mm 3 m/S 751 mmHg 61%
    19:00 +19°C° 0 mm 2 m/S 751 mmHg 66%
    20:00 +18°C° 0 mm 2 m/S 751 mmHg 70%
    21:00 +17°C° 0 mm 2 m/S 751 mmHg 74%
    22:00 +16°C° 0 mm 2 m/S 751 mmHg 78%
    23:00 +16°C° 0 mm 2 m/S 751 mmHg 78%

    Morgen, 27 Mai, Montag

    Zeit Temperatur Niederschläge Wind Luftdruck Luftfeuchtigkeit
    00:00 +16°C° 0 mm 3 m/S 751 mmHg 79%
    01:00 +15°C° 0 mm 4 m/S 750 mmHg 80%
    02:00 +15°C° 0 mm 4 m/S 750 mmHg 79%
    03:00 +15°C° 0 mm 4 m/S 750 mmHg 78%
    04:00 +15°C° 0 mm 4 m/S 750 mmHg 78%
    05:00 +17°C° 0 mm 4 m/S 750 mmHg 75%
    06:00 +17°C° 0 mm 5 m/S 750 mmHg 72%
    07:00 +19°C° 0 mm 5 m/S 749 mmHg 69%
    08:00 +20°C° 0 mm 5 m/S 750 mmHg 66%
    09:00 +21°C° 0 mm 5 m/S 750 mmHg 63%
    10:00 +22°C° 0 mm 6 m/S 750 mmHg 61%
    11:00 +22°C° 0.3 mm 6 m/S 750 mmHg 62%
    12:00 +21°C° 0.3 mm 6 m/S 750 mmHg 63%
    13:00 +21°C° 0.3 mm 6 m/S 750 mmHg 65%
    14:00 +21°C° 0 mm 5 m/S 750 mmHg 61%
    15:00 +21°C° 0 mm 5 m/S 750 mmHg 57%
    16:00 +21°C° 0 mm 4 m/S 750 mmHg 53%
    17:00 +20°C° 0 mm 4 m/S 751 mmHg 58%
    18:00 +19°C° 0 mm 3 m/S 751 mmHg 63%
    19:00 +17°C° 0 mm 2 m/S 751 mmHg 68%
    20:00 +16°C° 0 mm 2 m/S 751 mmHg 73%
    21:00 +15°C° 0 mm 2 m/S 751 mmHg 78%
    22:00 +13°C° 0 mm 2 m/S 751 mmHg 84%
    23:00 +13°C° 0 mm 2 m/S 751 mmHg 82%

    übermorgen, 28 Mai, Dienstag

    Zeit Temperatur Niederschläge Wind Luftdruck Luftfeuchtigkeit
    00:00 +13°C° 0 mm 2 m/S 751 mmHg 80%
    01:00 +14°C° 0 mm 2 m/S 750 mmHg 79%
    02:00 +13°C° 0.2 mm 2 m/S 750 mmHg 81%
    03:00 +13°C° 0.2 mm 2 m/S 750 mmHg 84%
    04:00 +13°C° 0.2 mm 2 m/S 749 mmHg 87%
    05:00 +12°C° 0.9 mm 2 m/S 749 mmHg 89%
    06:00 +12°C° 0.9 mm 2 m/S 749 mmHg 91%
    07:00 +12°C° 0.9 mm 2 m/S 749 mmHg 92%
    08:00 +12°C° 1.7 mm 2 m/S 749 mmHg 92%
    09:00 +11°C° 1.7 mm 3 m/S 748 mmHg 92%
    10:00 +11°C° 1.7 mm 3 m/S 748 mmHg 92%
    11:00 +11°C° 2 mm 3 m/S 748 mmHg 92%
    12:00 +12°C° 2 mm 2 m/S 748 mmHg 92%
    13:00 +12°C° 2 mm 2 m/S 749 mmHg 91%
    14:00 +12°C° 0.6 mm 2 m/S 748 mmHg 90%
    15:00 +12°C° 0.6 mm 2 m/S 748 mmHg 88%
    16:00 +13°C° 0.6 mm 2 m/S 748 mmHg 87%
    17:00 +12°C° 0 mm 1 m/S 748 mmHg 88%
    18:00 +12°C° 0 mm 1 m/S 749 mmHg 89%
    19:00 +12°C° 0 mm 1 m/S 749 mmHg 89%
    20:00 +12°C° 0 mm 1 m/S 749 mmHg 91%
    21:00 +11°C° 0 mm 1 m/S 749 mmHg 92%
    22:00 +11°C° 0 mm 1 m/S 749 mmHg 94%
    23:00 +10°C° 0 mm 1 m/S 749 mmHg 94%

    29 Mai, Mittwoch

    Zeit Temperatur Niederschläge Wind Luftdruck Luftfeuchtigkeit
    00:00 +10°C° 0 mm 1 m/S 750 mmHg 94%
    01:00 +10°C° 0 mm 1 m/S 750 mmHg 94%
    02:00 +9°C° 0 mm 1 m/S 750 mmHg 94%
    03:00 +9°C° 0 mm 1 m/S 750 mmHg 93%
    04:00 +9°C° 0 mm 1 m/S 750 mmHg 93%
    05:00 +11°C° 0 mm 1 m/S 750 mmHg 90%
    06:00 +12°C° 0 mm 2 m/S 750 mmHg 87%
    07:00 +14°C° 0 mm 2 m/S 751 mmHg 83%
    08:00 +15°C° 0.2 mm 2 m/S 751 mmHg 78%
    09:00 +16°C° 0.2 mm 2 m/S 751 mmHg 74%
    10:00 +18°C° 0.2 mm 3 m/S 751 mmHg 69%
    11:00 +18°C° 0.5 mm 3 m/S 751 mmHg 69%
    12:00 +18°C° 0.5 mm 3 m/S 752 mmHg 68%
    13:00 +18°C° 0.5 mm 4 m/S 752 mmHg 68%
    14:00 +18°C° 0.5 mm 4 m/S 752 mmHg 71%
    15:00 +16°C° 0.5 mm 5 m/S 753 mmHg 74%
    16:00 +15°C° 0.5 mm 6 m/S 753 mmHg 78%
    17:00 +14°C° 0.1 mm 5 m/S 754 mmHg 78%
    18:00 +13°C° 0.1 mm 5 m/S 754 mmHg 77%
    19:00 +12°C° 0.1 mm 4 m/S 755 mmHg 77%
    20:00 +10°C° 0 mm 4 m/S 755 mmHg 78%
    21:00 +9°C° 0 mm 3 m/S 756 mmHg 79%
    22:00 +8°C° 0 mm 2 m/S 756 mmHg 80%
    23:00 +8°C° 0 mm 2 m/S 757 mmHg 82%

    30 Mai, Donnerstag

    Zeit Temperatur Niederschläge Wind Luftdruck Luftfeuchtigkeit
    00:00 +7°C° 0 mm 2 m/S 757 mmHg 83%
    01:00 +6°C° 0 mm 2 m/S 758 mmHg 85%
    02:00 +6°C° 0 mm 2 m/S 758 mmHg 87%
    03:00 +6°C° 0 mm 2 m/S 759 mmHg 89%
    04:00 +5°C° 0 mm 2 m/S 759 mmHg 91%
    05:00 +8°C° 0 mm 1 m/S 759 mmHg 81%
    06:00 +10°C° 0 mm 1 m/S 760 mmHg 72%
    07:00 +12°C° 0 mm 1 m/S 760 mmHg 63%
    08:00 +13°C° 0 mm 2 m/S 760 mmHg 57%
    09:00 +15°C° 0 mm 2 m/S 760 mmHg 51%
    10:00 +17°C° 0 mm 2 m/S 760 mmHg 44%
    11:00 +17°C° 0 mm 2 m/S 760 mmHg 44%
    12:00 +18°C° 0 mm 2 m/S 760 mmHg 43%
    13:00 +18°C° 0 mm 2 m/S 759 mmHg 42%
    14:00 +18°C° 0 mm 2 m/S 759 mmHg 43%
    15:00 +19°C° 0 mm 2 m/S 759 mmHg 44%
    16:00 +19°C° 0 mm 3 m/S 759 mmHg 46%
    17:00 +18°C° 0.1 mm 2 m/S 758 mmHg 53%
    18:00 +17°C° 0.1 mm 2 m/S 758 mmHg 61%
    19:00 +16°C° 0.1 mm 2 m/S 758 mmHg 69%
    20:00 +15°C° 0 mm 2 m/S 758 mmHg 72%
    21:00 +13°C° 0 mm 3 m/S 758 mmHg 74%
    22:00 +13°C° 0 mm 3 m/S 758 mmHg 77%
    23:00 +13°C° 0 mm 3 m/S 758 mmHg 77%

    31 Mai, Freitag

    Zeit Temperatur Niederschläge Wind Luftdruck Luftfeuchtigkeit
    00:00 +13°C° 0 mm 4 m/S 757 mmHg 76%
    01:00 +14°C° 0 mm 4 m/S 757 mmHg 76%
    02:00 +13°C° 0.1 mm 4 m/S 756 mmHg 80%
    03:00 +13°C° 0.1 mm 4 m/S 756 mmHg 84%
    04:00 +13°C° 0.1 mm 4 m/S 756 mmHg 88%
    05:00 +13°C° 0.5 mm 5 m/S 756 mmHg 90%
    06:00 +13°C° 0.5 mm 5 m/S 757 mmHg 92%
    07:00 +13°C° 0.5 mm 5 m/S 757 mmHg 93%
    08:00 +13°C° 0.3 mm 5 m/S 758 mmHg 89%
    09:00 +12°C° 0.3 mm 5 m/S 759 mmHg 86%
    10:00 +12°C° 0.3 mm 5 m/S 759 mmHg 82%
    11:00 +14°C° 0 mm 5 m/S 760 mmHg 67%
    12:00 +15°C° 0 mm 5 m/S 761 mmHg 53%
    13:00 +17°C° 0 mm 5 m/S 761 mmHg 38%
    14:00 +17°C° 0 mm 5 m/S 762 mmHg 38%
    15:00 +18°C° 0 mm 4 m/S 762 mmHg 38%
    16:00 +18°C° 0 mm 4 m/S 762 mmHg 37%
    17:00 +17°C° 0 mm 3 m/S 763 mmHg 43%
    18:00 +16°C° 0 mm 2 m/S 763 mmHg 49%
    19:00 +15°C° 0 mm 1 m/S 763 mmHg 55%
    20:00 +13°C° 0 mm 1 m/S 764 mmHg 58%
    21:00 +12°C° 0 mm 1 m/S 764 mmHg 61%
    22:00 +9°C° 0 mm 0 m/S 764 mmHg 65%
    23:00 +10°C° 0 mm 1 m/S 764 mmHg 64%
    Mehr zeigen